Regional Weather Roundup
Issued by NWS

Home | Current Version | Previous Version | Graphics & Text | Print | Product List | Glossary Off
Versions: 1 2 3 4 5 6 7 8 9 10 11 12 13 14 15 16 17 18 19 20 21 22 23 24 25 26 27 28 29 30 31 32 33 34 35 36 37 38 39 40 41 42 43 44 45 46 47 48 49 50

000
ASUS43 KTOP 010408
RWRKS

WEATHER ROUNDUP FOR KANSAS
NATIONAL WEATHER SERVICE GOODLAND KS
1100 PM CDT TUE JUN 30 2015

NOTE:  "FAIR" INDICATES FEW OR NO CLOUDS BELOW 12,000 FEET WITH NO
SIGNIFICANT WEATHER AND/OR OBSTRUCTIONS TO VISIBILITY.

KSZ001>006-013>018-027>032-041>047-010500-
NORTHWEST KANSAS

CITY           SKY/WX    TMP DP  RH WIND       PRES   REMARKS
GOODLAND       PTCLDY    82  46  28 SW8       29.93S
HAYS           CLEAR     84  52  32 SW13      29.85R
HILL CITY      PTCLDY    87  53  31 SW14      29.84R
RUSSELL        CLEAR     85  55  35 S13       29.82R
$$

KSZ061>065-074>080-084>089-010500-
SOUTHWEST KANSAS

CITY           SKY/WX    TMP DP  RH WIND       PRES   REMARKS
DODGE CITY     CLEAR     78  53  41 S10       29.93R
ELKHART          N/A     79  50  36 S12         N/A
GARDEN CITY    CLEAR     75  56  51 S8        29.93R
GREAT BEND     CLEAR     82  55  39 S12       29.87R
LIBERAL        CLEAR     79  54  41 S13       29.99R
PRATT          CLEAR    N/A N/A N/A S14       29.91S
$$

KSZ066>073-081>083-090>101-010500-
SOUTHEAST KANSAS

CITY           SKY/WX    TMP DP  RH WIND       PRES   REMARKS
CHANUTE        PTCLDY    79  70  74 S8        29.89S
COFFEYVILLE    PTCLDY    79  70  74 S7        29.90R
HUTCHINSON     PTCLDY    84  57  39 S12       29.86R
MEDICINE LODGE   N/A     81  61  50 S8        29.90R
NEWTON         PTCLDY    81  55  41 S9        29.89S
PARSONS        PTCLDY    80  71  74 S3        29.91R
WICHITA INTL   MOCLDY    82  58  43 S13       29.87R
WICHITA JABRA  MOCLDY    85  61  44 S12       29.87R
WICHITA MCCONL MOCLDY    83  64  51 S13       29.88R
WINFIELD       MOCLDY    84  63  49 S14       29.91R
$$

KSZ007>012-019>026-033>040-048>060-102>105-010500-
NORTHEAST KANSAS

CITY           SKY/WX    TMP DP  RH WIND       PRES   REMARKS
CONCORDIA      PTCLDY    80  67  64 SE8       29.82S
EMPORIA        PTCLDY    80  67  64 S10       29.85S
LAWRENCE       MOCLDY    79  67  66 SE7       29.87S
MANHATTAN      PTCLDY    81  68  64 CALM      29.82F
MARYSVILLE     CLOUDY    77  68  73 E12G17    29.85S
OLATHE IND     PTCLDY    79  68  69 SE8       29.90S
OLATHE EXE     PTCLDY    77  67  71 SE7       29.89S
SALINA         CLEAR     82  60  47 S9        29.81R
TOPEKA BILLARD MOCLDY    80  68  66 E9        29.86S
TOPEKA FORBES  MOCLDY    80  67  64 SE8       29.85F
$$



USA.gov is the U.S. government's official web portal to all federal, state and local government web resources and services.